STARLINK-33789, 63657

Orbit data source: Space-Track

STARLINK-33789, 63657 is a payload satellite owned by SpaceX/Seattle (US) in LEO that was launched on Fri, 25 Apr 2025 UTC via an FALCON 9 launch vehicle from the Air Force Eastern Test Range (AFETR). Payload-class satellites include a variety of spacecraft equipped with specific instruments for various scientific and technological missions. These include communications satellites like Starlink; space stations such as the ISS; scientific satellites like the Hubble; Earth observation satellites from companies like Planet Labs, Umbra, and HawkEye 360; GPS; miniature CubeSats for education and research; and military/defense satellites.

Loading next visibility...
Identifier
63657, 2025-083Z
Orbit
LEO
Country
Flag of USUS
Related business
Manufacturer
SpaceX/Seattle
Mission
Operational Commercial Communications
Bus & Motor
STARLINK V2MO, Unknown motor
Mass
575 kg wet, ~530 kg dry
Launch date (UTC)
2025-04-25 (1 year ago)
Launch vehicle
FALCON 9
Launch site
Air Force Eastern Test Range (AFETR)
Object type
Payload
Rocket body
Debris
Shape & HBR
Box + 2 Pan, 17.7 m
Radar Cross Section
36.964 m², Large (>1 m²)

Expand to show TLE details & history
Last TLE update: 13 hours ago

TLE from 13 hours ago
0 STARLINK-33789
1 63657U 25083Z   26171.31561616  .00010143  00000-0  37753-3 0  9998
2 63657  43.0020 145.5025 0001411 272.4933  87.5757 15.27585703 65796
Epoch: 2026-06-20T07:34Z
TLE epoch observation values (Epoch: 2026-06-20T07:34:29.236Z)
Latitude
-0.00002°
Longitude
123.34867°
Altitude
482.767 km
Speed
7.626 km/s
True Right ascension
09h 42m 00s
True Declination
0° 00' 00"
Sunlit
Object was in daylight at epoch
Visualization orbit readout
Latitude
Unknown
Longitude
Unknown
Altitude
Unknown
Speed
Unknown
Apparent Right ascension
Unknown
Apparent Declination
Unknown
Sunlit
N/A
Visualization observer readout
Local Sidereal Time
07:17:42
Azimuth
Unknown
Elevation
Unknown
Doppler factor
Unknown
Orbital elements
Apogee altitude
485.945 km
Perigee altitude
484.008 km
Semi-major axis
6,863.114 km
Eccentricity
0.00014
Inclination
43.002°
RAAN
145.5025°
Arg. of periapsis
272.4933°
True anomaly
87.59185°
Mean anomaly
87.5757°
Eccentric anomaly
87.58378°
Mean motion
3.81734 °/min
Orbital period
94.31 mins
BSTAR
0.00037753
Loading maneuver chart data...
Computing Atmospheric mass density...
Loading historical data...
Loading historical data...
Loading historical data...
Loading historical data...
Loading historical data...
Loading historical data...
Loading historical data...

Documentation

Showing up to 5 results
|